Regional Weather Roundup
Issued by NWS Wakefield, VA

Home | Current Version | Previous Version | Graphics & Text | Print | Product List | Glossary On
Versions: 1 2 3 4 5 6 7 8 9 10 11 12 13 14 15 16 17 18 19 20 21 22 23 24 25 26 27 28 29 30 31 32 33 34 35 36 37 38 39 40 41 42 43 44 45 46 47 48 49 50
000
ASUS41 KAKQ 041814
RWRAKQ

REGIONAL WEATHER ROUNDUP
NATIONAL WEATHER SERVICE WAKEFIELD VA
200 PM EDT MON MAY 04 2015

Note: "fair" indicates few or no clouds below 12,000 feet with no
significant weather and/or obstructions to visibility. * = Denotes
station may not report precipitation (e.g., rain,snow,etc.),
thunder or fog.

VAZ042-051-052>054-056-041900-
NORTHERN VIRGINIA

CITY           SKY/WX    TMP DP  RH WIND       PRES   REMARKS
WASH NATIONAL  MOSUNNY   84  51  31 S12G25    30.21F
DULLES         MOSUNNY   83  44  25 SW13      30.20F
FORT BELVOIR   SUNNY     83  47  29 S8        30.21F
QUANTICO       MOSUNNY   75  57  53 S16       30.22F
FREDERICKSBRG* SUNNY     85  48  27 S10G18    30.21F
STAFFORD*      SUNNY     83  38  20 S13       30.25F
WARRENTON      SUNNY     85  53  33 S12G17    30.20F
CULPEPER*      NOT AVBL
MANASSAS*      SUNNY     82  43  24 SW10G20   30.20F
LEESBURG*      MOSUNNY   86  50  28 SW12G24   30.20F
WINCHESTER     SUNNY     84  32  15 S10       30.18F
FRONT ROYAL*   FAIR      82  45  26 W8        30.18S
LURAY*         FAIR      84  46  26 S12       30.20S
$$

VAZ048-049-060>072-079>083-041900-
CENTRAL AND SOUTH CENTRAL VIRGINIA

CITY           SKY/WX    TMP DP  RH WIND       PRES   REMARKS
RICHMOND       MOSUNNY   83  50  31 SW8G17    30.25F
CHESTERFIELD*  FAIR      82  50  32 S8        30.26F
PETERSBURG*    MOSUNNY   83  45  26 S8G16     30.26F
HANOVER        MOSUNNY   82  48  30 S15       30.25F
TAPPAHANNOCK*  SUNNY     83  39  20 S13       30.25F
QUINTON*       FAIR      81  48  31 SE7       30.25F
CHARLOTTSVILLE MOSUNNY   82  52  35 S18G24    30.21F
GORDONSVILLE*  FAIR      82  51  34 S13G22    30.21S
ORANGE*        SUNNY     82  50  32 SE10G20   30.23S
LOUISA*        SUNNY     82  48  30 S7G20     30.22F
BUMPASS*       FAIR      82  50  33 SW10      30.23F
FARMVILLE*     SUNNY     83  51  32 SW12G18   30.24S
CREWE*         FAIR      81  47  31 S6G17     30.25F
FORT PICKETT*  MOCLDY    80  49  33 SW8G25    30.27S
CHASE CITY*    FAIR      82  56  41 SW5       30.27S
CLARKSVILLE*   MOCLDY    79  55  44 S8        30.27S
SOUTH HILL*    MOSUNNY   79  55  43 S13       30.33F
LAWRENCEVILLE* FAIR      81  52  36 SW7       30.27F
EMPORIA*       PTSUNNY   79  52  38 SE9       30.29F
$$

VAZ088>098-041900-
SOUTHEAST VIRGINIA

CITY           SKY/WX    TMP DP  RH WIND       PRES   REMARKS
NORFOLK        PTSUNNY   80  45  28 S8        30.28F
VIRGINIA BEACH MOSUNNY   84  46  26 SW12      30.28F
NORFOLK NAVAL  MOSUNNY   84  47  27 SW8       30.29F
WEST POINT*    MOSUNNY   85  38  19 SW7G16    30.27F
SALUDA*        FAIR      80  52  36 W8        30.25F
NEWPORT NEWS   SUNNY     83  51  33 S15       30.28F
LANGLEY AFB    SUNNY     80  51  37 S13       30.27F
FORT EUSTIS    MOSUNNY   80  54  41 S10       30.26F
WILLIAMSBURG*  MOSUNNY   82  54  36 S6        30.28S
HR EXEC AP*    FAIR      82  50  32 SW9G18    30.30S
FRANKLIN*      SUNNY     80  49  34 SW10G16   30.29S
WAKEFIELD      MOSUNNY   80  51  36 SW9G17    30.27F
$$

VAZ020-022-025-037-045-041900-
WEST CENTRAL AND SOUTHWEST VIRGINIA

CITY           SKY/WX    TMP DP  RH WIND       PRES   REMARKS
STAUNTON*      SUNNY     81  44  26 SW9G16    30.24F
WAYNESBORO*    FAIR      78  46  31 SW12G18   30.25S
HOT SPRINGS VA MOSUNNY   71  35  26 SW10G18   30.33S
LYNCHBURG      MOSUNNY   79  48  33 SW10      30.26F
DANVILLE       PTSUNNY   79  53  40 SW9       30.27F
SOUTH BOSTON*  FAIR      81  51  34 SW6       30.26F
MARTINSVILLE   MOSUNNY   83  49  31 W5        30.29F
ROANOKE        MOSUNNY   82  46  28 W12       30.26F
BLACKSBURG     CLOUDY    72  47  39 W6        30.32F
DUBLIN*        PTSUNNY   79  47  31 W7        30.31S
MARION*        MOSUNNY   75  46  36 W14G22    30.34F
HILLSVILLE*    CLOUDY    71  47  42 CALM      30.33F
RICHLANDS*     FAIR      72  41  32 S9G23     30.33F
WISE*          SUNNY     73  41  31 SW12G17   30.34F
ABINGDON*      MOSUNNY   76  48  36 W6        30.32F
$$

MDZ021>025-VAZ099-100-041900-
SOUTHERN MARYLAND AND THE DELMARVA PENINSULA

CITY           SKY/WX    TMP DP  RH WIND       PRES   REMARKS
PATUXENT RIVER MOSUNNY   80  45  28 S15       30.24F
BAY BRIDGE APT   N/A    N/A N/A N/A S12G22    30.22F
LEONARDTOWN    SUNNY     81  41  24 S10G18    30.25F
DOVER          MOSUNNY   82  48  30 S13       30.19F
GEORGETOWN     MOSUNNY   82  41  23 S24G30    30.24F
EASTON         MOSUNNY   82  48  30 SW15G23   30.27F
CAMBRIDGE      SUNNY     81  43  26 SW13G20   30.24F
SALISBURY      MOSUNNY   81  41  24 W15G21    30.25S
OCEAN CITY     MOSUNNY   77  53  43 S10G18    30.26F
WALLOPS ISLAND MOSUNNY   78  52  40 S14       30.27F
ACCOMACK*      SUNNY     79  46  31 SW14G22   30.28S
$$

NCZ012>017-030>032-041900-
NORTH CENTRAL AND EASTERN NORTH CAROLINA

CITY           SKY/WX    TMP DP  RH WIND       PRES   REMARKS
ROANOKE RAPIDS FAIR      79  54  41 S12       30.29S
RALEIGH        MOSUNNY   80  58  46 SW14G20   30.30F
ELIZABETH CITY SUNNY     80  45  28 S12       30.31F
AHOSKIE*       SUNNY     80  50  35 S8        30.30S
EDENTON*       MOSUNNY   80  47  31 W6        30.31F
CURRITUCK*     MOSUNNY   80  38  22 SW7G17    30.31S
KILL DEVIL HLS SUNNY     78  51  38 S5        30.31S
MANTEO         CLOUDY    75  53  45 SW9       30.33S
CAPE HATTERAS  SUNNY     70  56  61 SW6       30.35S
TARBORO*       FAIR      82  49  32 SW8       30.31F
GOLDSBORO      SUNNY     81  48  31 VRB7      30.29F
WASHINGTON     MOSUNNY   78  47  33 S9        30.32S
GREENVILLE     SUNNY     81  46  30 SW9       30.32S
NEW BERN       PTSUNNY   79  46  31 SE9       30.33F
WILMINGTON     SUNNY     79  54  41 SE12      30.33S
$$

VAZ048-041900-
ELSEWHERE

CITY           SKY/WX    TMP DP  RH WIND       PRES   REMARKS
HARRISBURG PA  NOT AVBL
BALTIMORE      MOSUNNY   83  41  22 S10G21    30.19F
ANNAPOLIS      SUNNY     77  50  38 SE13      30.20F
ANDREWS AFB    SUNNY     82  47  29 S13G21    30.21F
PHILADELPHIA   MOSUNNY   84  42  22 S16       30.20F
HENDERSON NC   MOSUNNY   80  49  33 SW9       30.29S
GREENSBORO     MOSUNNY   80  51  36 SW14      30.28F
ROCKY MOUNT    SUNNY     81  51  35 SW12      30.30F
$$

VAZ100-041900-
MARINE

STATION/POSITION TIME  TEMP    WIND        PRES    WAVE   SWELL
                       AIR SEA DIR/SP/G            HT/PER HT/PER
                 (UTC) (F)     (DEG/KT/KT) (MB)    (FT/S) (FT/S)
BRANDYWINE LGT   1700   67 55  170/ 12/ 12 1024.3F
CAPE MAY NJ      1700   74 59  170/  6/  9 1024.0F
LEWES DE         1700   81 55  220/  7/ 15 1024.0F
15NM E FENWICK I 1750   57 53              1024.6F   3/11
OCEAN-CITY-INLET 1700   63 53  200/  6/  9 1024.7F
WACHAPREAGUE VA  1700   78 67  220/ 11/ 17 1025.3F
THOMAS POINT MD  1800   69 57  160/ 18/ 19 1023.6F
GOOSES REEF MD   1800   65 62                N/A     1
COVE POINT MD    1700   65     180/ 15/ 16 1025.2F
SOLOMONS ISLAND  1700      60                N/A
BISHOPS HEAD MD  1700   64 69  140/  9/ 10 1024.6F
PINEY POINT MD   1700          200/ 11/ 13   N/A
CAMBRIDGE MD     1700   80 61  210/ 11/ 17 1024.2F
LEWISETTA VA     1700   78 65              1024.2F
RAPPAHANNOCK LGT 1700          170/ 11/ 12 1026.1F
YORK RVR RNG VA  1718          220/ 13/ 15   N/A
YORKTOWN VA      1718          240/  6/ 10   N/A
JAMESTOWN VA     1800   76 66  220/  8/ 14 1024.0F
DOMINION TERM VA 1700   72     220/ 10/ 11 1025.7F
KIPTOPEKE VA     1700      64  260/  5/  6   N/A
CHES BAY BRIDGE  1700   72 61  250/  2/  7 1025.4F
CAPE HENRY VA    1700   69      70/  6/  9 1024.6F
CHESAPEAKE LGHT  1700   67     190/  3/  3 1026.9F
WILLOUBY STN VA  1700   73     230/  6/  7 1026.4F
S CRANEY ISL VA  1718          240/  9/ 12   N/A
CAPE HENRY BUOY  1728      60                N/A     2/10   2/11
1ST LANDING BUOY 1800      63              1046.0F   1/ 5
CAPE CHARLES BUO 1726      60                N/A     2/12   2/12
OFFSHORE WE BUOY 1711      55                N/A     3/12   3/12
64NM E OF VA BCH 1750   61 62  200/  8/ 10 1026.5F   3/10   3/10
DUCK PIER NC     1718          260/  8/  9   N/A
44056 DUCK FRF   1711      60                N/A     3/11   2/11
OREGON INLET NC  1700   67 64  180/  8/ 10 1027.2F
HATTERAS NC      1700   72 63  250/  4/  7 1027.3F
DIAMOND SHLS NC  1750   71 79  250/  4/  4 1027.9F   4/10   3/10
CAPE LOOKOUT NC  1800   71     160/  7/  8 1027.6S
$$


USA.gov is the U.S. government's official web portal to all federal, state and local government web resources and services.